Moses Lake, WA
on Friday, February 1, 2013

Friday
Previous Day Next Day
Daily Summary
 ActualAverageRecord
Temperature
Mean Temperature °F 32°F  
Max Temperature 48°F 39°F 52°F (2003)
Min Temperature 23°F 26°F 6°F (1985)
Degree Days
Heating Degree Days 29 33  
Month to date heating degree days 29 33  
Since 1 July heating degree days 3383 3707  
Cooling Degree Days 0 0  
Month to date cooling degree days 0 0  
Year to date cooling degree days 0 0  
Moisture
Dew Point 27°F   
Average Humidity 74    
Maximum Humidity 92    
Minimum Humidity 56    
Precipitation
Precipitation 0.00 in 0.03 in 0.16 in (1998)
Month to date precipitation 0.00 0.03  
Year to date precipitation 0.28 1.17  
Wind
Wind Speed 5 mph   
Max Wind Speed 10 mph   
Max Gust Speed 13 mph   
Visibility 10 miles   
Events     

Key: T is trace of precipitation, MM is missing value
Source: NWS Daily Summary
Time(PST)TemperatureDew PointHumidity Pressure Visibility Wind DirectionWind SpeedGust SpeedPrecipitationEvents Conditions
12:52 AM 26.1°F 24.1°F 92% 30.26 in 10.0 miles Calm Calm - N/A   Clear
1:52 AM 26.1°F 23.0°F 88% 30.27 in 10.0 miles North 3.5 mph - N/A   Clear
2:52 AM 25.0°F 23.0°F 92% 30.29 in 10.0 miles North 4.6 mph - N/A   Clear
3:52 AM 24.1°F 19.9°F 84% 30.29 in 10.0 miles North 6.9 mph - N/A   Clear
4:52 AM 25.0°F 21.9°F 88% 30.31 in 10.0 miles Calm Calm - N/A   Clear
5:52 AM 24.1°F 19.9°F 84% 30.32 in 10.0 miles North 4.6 mph - N/A   Clear
6:52 AM 24.1°F 21.0°F 88% 30.35 in 10.0 miles NNW 4.6 mph - N/A   Clear
7:52 AM 25.0°F 19.9°F 81% 30.36 in 10.0 miles North 5.8 mph - N/A   Clear
8:52 AM 28.9°F 25.0°F 85% 30.39 in 9.0 miles North 5.8 mph - N/A   Clear
9:52 AM 33.1°F 28.9°F 85% 30.40 in 10.0 miles North 4.6 mph - N/A   Clear
10:52 AM 39.9°F 33.1°F 77% 30.41 in 10.0 miles Calm Calm - N/A   Clear
11:52 AM 44.1°F 34.0°F 68% 30.40 in 10.0 miles North 4.6 mph - N/A   Clear
12:52 PM 46.9°F 34.0°F 61% 30.40 in 10.0 miles NNE 3.5 mph - N/A   Clear
1:52 PM 46.9°F 34.0°F 61% 30.40 in 10.0 miles Calm Calm - N/A   Clear
2:52 PM 48.0°F 33.1°F 56% 30.41 in 10.0 miles NNE 6.9 mph - N/A   Clear
3:52 PM 45.0°F 32.0°F 60% 30.42 in 10.0 miles North 5.8 mph - N/A   Clear
4:52 PM 37.9°F 30.0°F 73% 30.42 in 10.0 miles North 5.8 mph - N/A   Clear
5:52 PM 34.0°F 28.0°F 79% 30.43 in 10.0 miles North 9.2 mph - N/A   Clear
6:52 PM 33.1°F 28.0°F 82% 30.44 in 10.0 miles North 9.2 mph - N/A   Clear
7:52 PM 32.0°F 28.0°F 85% 30.46 in 10.0 miles North 6.9 mph - N/A   Clear
8:52 PM 30.0°F 27.0°F 88% 30.48 in 10.0 miles North 6.9 mph - N/A   Clear
9:52 PM 30.0°F 26.1°F 85% 30.49 in 10.0 miles North 4.6 mph - N/A   Clear
10:52 PM 28.0°F 25.0°F 88% 30.49 in 10.0 miles North 5.8 mph - N/A   Clear
11:52 PM 28.0°F 24.1°F 85% 30.49 in 10.0 miles NNW 6.9 mph - N/A   Clear
Moon Phase
Feb. 01 Feb. 03 Feb. 10 Feb. 17 Feb. 25
Sunrise:07:22 AM (PST) Moon Rise:11:42 PM (PST)2/1
Sunset:05:00 PM (PST) Moon Set:09:31 AM (PST)2/1

Copyright © 2014 The Weather Underground, Inc.